Skip Page Navigation
NASA JPL Caltech
NASA Logo - Jet Propulsion Laboratory + View the NASA Portal
+ Near-Earth Object (NEO) Program
Search JPL
JPL Home Earth Solar System Stars & Galaxies Technology
JPL Solar System Dynamics
BODIES ORBITS EPHEMERIDES TOOLS PHYSICAL DATA DISCOVERY FAQ SITE MAP
JPL Small-Body Database Browser
Search: [ help ]  
52533 (1996 TJ10)
Classification: Inner Main-belt Asteroid          SPK-ID: 2052533
Ephemeris | Orbit Diagram | Orbital Elements | Physical Parameters | Discovery Circumstances | Close-Approach Data ]

[ show orbit diagram ]
Orbital Elements at Epoch 2457400.5 (2016-Jan-13.0) TDB
Reference: JPL 18 (heliocentric ecliptic J2000)
 Element Value Uncertainty (1-sigma)   Units 
e .0806104279626637 8.6472e-08  
a 1.957281612457583 1.1267e-08 au
q 1.799504304033925 1.6761e-07 au
i 19.01546622277721 8.86e-06 deg
node 12.23220889973621 1.7992e-05 deg
peri 307.8605066839515 4.7514e-05 deg
M 65.21742783123882 4.3273e-05 deg
tp 2457219.307771422640
(2015-Jul-15.80777142)
0.00012057 JED
period 1000.180541566915
2.74
8.6363e-06
2.364e-08
d
yr
n .3599350167680851 3.108e-09 deg/d
Q 2.115058920881241 1.2175e-08 au
  Orbit Determination Parameters
   # obs. used (total)      778  
   data-arc span      7026 days (19.24 yr)  
   first obs. used      1996-09-18  
   last obs. used      2015-12-14  
   planetary ephem.      DE431  
   SB-pert. ephem.      SB431-BIG16  
   condition code      0  
   fit RMS      .50821  
   data source      ORB  
   producer      Otto Matic  
   solution date      2016-Jan-04 15:10:20  

Additional Information
 Earth MOID = .827268 au 
 Jupiter MOID = 3.09216 au 
 T_jup = 3.814 
[ show covariance matrix ]

Ephemeris | Orbit Diagram | Orbital Elements | Physical Parameters | Discovery Circumstances | Close-Approach Data ]

Physical Parameter Table
Parameter Symbol Value Units Sigma Reference Notes
absolute magnitude H 14.7 mag n/a MPO359096  

52533 (1996 TJ10)          Discovered 1996-Oct-09 by Ueda, S., Kaneda, H. at Kushiro
Reference: 20030216/Numbers.arcLast Updated: 2004-04-19

[ show close-approach data ]
Alternate Designations
 1996 TJ10 = 1998 FA144 
Ephemeris | Orbit Diagram | Orbital Elements | Physical Parameters | Discovery Circumstances | Close-Approach Data ]
ABOUT SSD CREDITS/AWARDS PRIVACY/COPYRIGHT GLOSSARY LINKS
FirstGov 2016-Feb-09 09:51 UT
(server date/time)  
NASA Home Page
Site Manager:   Ryan S. Park
Webmaster  Alan B. Chamberlin